Location: Brede
(50.9167°N, 0.6000°E)
Time: 00:59:35
(UTC+00:00)

Cosmos 1758 - Pass Details

Date: 08 August 2020
Orbit: 540 x 562 km, 82.5° (Epoch: 19 September)

Event Time Altitude Azimuth Distance (km) Brightness Sun altitude
Exits shadow 03:09:16 15° 202° (SSW) 1,527 5.0 -11.7°
Maximum altitude 03:12:30 65° 282° (WNW) 615 3.4 -11.3°
Drops below altitude 10° 03:16:31 10° 5° (N) 1,837 6.7 -10.9°
Sets 03:18:43 0° 9° (N) 2,732 7.8 -10.6°
